Weather History for Scappoose, OR

Change the Weather History Date:

Wednesday, September 18, 2013

  Actual Average Record
Temperature  
Mean Temperature 60 °F -  
Max Temperature 71 °F - 90 °F (1999)
Min Temperature 49 °F - 39 °F (2007)
Degree Days  
Heating Degree Days 5    
Month to date heating degree days 15  
Since 1 July heating degree days 39  
Cooling Degree Days 0    
Month to date cooling degree days 72  
Year to date cooling degree days 396  
Growing Degree Days 10 (Base 50)    
Moisture  
Dew Point 50 °F    
Average Humidity 72    
Maximum Humidity 96    
Minimum Humidity 47    
Precipitation  
Precipitation 0.01 in - 0.53 in (2010)
Month to date precipitation 2.20  
Year to date precipitation 16.74  
Sea Level Pressure  
Sea Level Pressure 30.05 in    
Wind  
Wind Speed 2 mph (WNW)    
Max Wind Speed 9 mph    
Max Gust Speed 13 mph    
Visibility 10 miles    
Events      
T = Trace of Precipitation, MM = Missing Value Source: NWS Daily Summary

Daily Weather History Graph

Daily Weather History Graph

Search for Another Location

Airport:

Trip Planner

Search our weather history database for the weather conditions in past years. The results will help you decide how hot, cold, wet, or windy it might be!

Date:

Astronomy

Sep. 18, 2013 Rise Set
Actual Time 6:53 AM PDT 7:16 PM PDT
Civil Twilight 6:24 AM PDT 7:45 PM PDT
Nautical Twilight 5:48 AM PDT 8:20 PM PDT
Astronomical Twilight 5:12 AM PDT 8:57 PM PDT
Moon 6:41 PM PDT (9/18) 6:02 AM PDT (9/18)
Length of Visible Light 13h 21m
Length of Day
12h 22m
Waxing Gibbous, 99% of the Moon is Illuminated
Sep 18
Waxing Gibbous
Sep 19
Full
Sep 26
Last Quarter
Oct 4
New
Oct 11
First Quarter

Hourly Weather History & Observations

Time (PDT) Temp. Dew Point Humidity Pressure Visibility Wind Dir Wind Speed Gust Speed Precip Events Conditions
12:53 AM 54.0 °F 50.0 °F 86% 30.01 in 10.0 mi Calm Calm - N/A   Mostly Cloudy
1:53 AM 52.0 °F 50.0 °F 93% 30.02 in 10.0 mi West 3.5 mph - N/A   Overcast
2:53 AM 51.1 °F 48.0 °F 89% 30.03 in 10.0 mi Calm Calm - N/A   Scattered Clouds
3:53 AM 52.0 °F 48.9 °F 89% 30.04 in 10.0 mi Calm Calm - N/A   Overcast
4:53 AM 53.1 °F 50.0 °F 89% 30.04 in 10.0 mi Calm Calm - 0.01 in   Overcast
5:53 AM 50.0 °F 48.0 °F 93% 30.05 in 10.0 mi Calm Calm - N/A   Unknown
6:53 AM 50.0 °F 48.0 °F 93% 30.06 in 6.0 mi Calm Calm - N/A   Mostly Cloudy
7:53 AM 50.0 °F 48.9 °F 96% 30.07 in 10.0 mi Calm Calm - N/A   Clear
8:53 AM 57.0 °F 53.1 °F 87% 30.08 in 10.0 mi Calm Calm - N/A   Overcast
9:53 AM 60.1 °F 54.0 °F 80% 30.09 in 10.0 mi Calm Calm - N/A   Overcast
10:53 AM 64.0 °F 53.1 °F 67% 30.09 in 10.0 mi SSE 3.5 mph - N/A   Mostly Cloudy
11:53 AM 66.0 °F 52.0 °F 60% 30.08 in 10.0 mi Calm Calm - N/A   Mostly Cloudy
12:03 PM 66.2 °F 51.8 °F 60% 30.08 in 10.0 mi Calm Calm - N/A   Mostly Cloudy
12:53 PM 69.1 °F 51.1 °F 53% 30.08 in 10.0 mi Variable 3.5 mph - N/A   Overcast
1:53 PM 66.9 °F 51.1 °F 57% 30.07 in 10.0 mi Variable 6.9 mph - N/A   Mostly Cloudy
2:53 PM 69.1 °F 50.0 °F 51% 30.06 in 10.0 mi SE 3.5 mph - N/A   Partly Cloudy
3:53 PM 68.0 °F 48.9 °F 50% 30.05 in 10.0 mi ENE 3.5 mph - N/A   Mostly Cloudy
4:53 PM 70.0 °F 48.0 °F 46% 30.04 in 10.0 mi Calm Calm - N/A   Clear
5:53 PM 70.0 °F 48.0 °F 46% 30.04 in 10.0 mi Calm Calm - N/A   Clear
6:53 PM 64.0 °F 52.0 °F 65% 30.03 in 10.0 mi WNW 3.5 mph - N/A   Clear
7:53 PM 55.9 °F 51.1 °F 84% 30.03 in 10.0 mi WNW 5.8 mph - N/A   Clear
8:53 PM 57.0 °F 50.0 °F 77% 30.04 in 10.0 mi WNW 3.5 mph - N/A   Unknown
9:53 PM 54.0 °F 50.0 °F 86% 30.04 in 10.0 mi East 4.6 mph - N/A   Clear
10:53 PM 52.0 °F 48.9 °F 89% 30.03 in 10.0 mi Calm Calm - N/A   Unknown
11:53 PM 51.1 °F 48.0 °F 89% 30.02 in 10.0 mi West 3.5 mph - N/A   Clear